Flag for U.S.A. Weather past 2 weeks in Abilene, Texas, U.S.A.

Now
72 °F

Thunderstorms. Fog.


Feels Like: 67 °F
Forecast: 73 / 83 °F
Wind: 6 mph from North

Location: Abilene Regional Airport

Current Time: Jul 7, 2015 at 5:03:09 AM

Latest Report: Jul 7, 2015 at 3:59 AM


Visibility: 2 mi

Pressure: 29.97 "Hg (28.21 "Hg at 524m altitude)

Humidity: 97%

Dew point: 71 °F

Location of AbileneLocation

Historic Weather in Abilene — Graph

°F

Abilene temperature yesterday

Maximum temperature yesterday: 94 °F (at 3:52 PM)
Minimum temperature yesterday: 76 °F (at 5:59 AM)
Average temperature yesterday: 85 °F

Past Weeks' High & Low Weather Summary

 TemperatureHumidityPressure
High95 °F (Jun 29, 3:52 PM)97% (Jun 24, 6:52 AM)30.21 "Hg (Jun 24, 6:52 AM)
Low65 °F (Jun 28, 6:52 AM)28% (Jun 28, 4:52 PM)29.76 "Hg (Jul 6, 6:52 PM)
Average81 °F62%29.96 "Hg
* Reported Jun 22 3:52 AM — Jul 7 3:59 AM, Abilene, Weather by CustomWeather, © 2015

Note: Actual official high and low records may vary slightly from our data, if they occured in-between our weather recording intervals... More about our weather records

Advertising

Abilene weather history for previous 24 hours

 ConditionsComfort  
Time TempWeatherWind HumidityBarometerVisibility
3:59 AM
Tue, Jul 7
72 °FThunderstorms. Fog.6 mph97%29.97 "Hg2 mi
2:52 AM78 °FThunderstorms. Overcast.7 mph74%29.88 "Hg10 mi
1:52 AM81 °FOvercast.10 mph60%29.87 "Hg10 mi
12:52 AM82 °FOvercast.8 mph56%29.88 "Hg10 mi
11:52 PM
Mon, Jul 6
83 °FPassing clouds.3 mph55%29.88 "Hg10 mi
10:52 PM84 °FClear.15 mph53%29.85 "Hg10 mi
9:52 PM86 °FClear.14 mph46%29.82 "Hg10 mi
8:52 PM88 °FSunny.14 mph42%29.81 "Hg10 mi
7:52 PM90 °FSunny.16 mph38%29.79 "Hg10 mi
6:52 PM93 °FSunny.21 mph36%29.76 "Hg10 mi
5:52 PM94 °FPassing clouds.17 mph38%29.79 "Hg10 mi
4:52 PM94 °FPassing clouds.21 mph41%29.81 "Hg10 mi
3:52 PM94 °FScattered clouds.16 mph44%29.84 "Hg10 mi
2:52 PM92 °FPartly sunny.21 mph47%29.86 "Hg10 mi
1:52 PM92 °FScattered clouds.17 mph49%29.87 "Hg10 mi
12:52 PM90 °FPassing clouds.18 mph50%29.89 "Hg10 mi
11:52 AM88 °FScattered clouds.17 mph55%29.90 "Hg10 mi
10:59 AM85 °FPartly sunny.20 mph61%30.00 "Hg10 mi
9:52 AM84 °FPartly sunny.21 mph65%29.91 "Hg10 mi
8:52 AM81 °FPassing clouds.18 mph72%29.90 "Hg10 mi
7:52 AM78 °FScattered clouds.12 mph79%29.89 "Hg8 mi
6:52 AM76 °FPassing clouds.12 mph85%29.88 "Hg8 mi
5:59 AM76 °FPassing clouds.12 mph85%29.97 "Hg10 mi
5:00 AM77 °FPassing clouds.9 mph79%29.97 "Hg10 mi
Weather by CustomWeather, © 2015

See weather overviewHow to use our weather pages